sat.trackr.live / text

‹ back to catalog

STARLINK-36869

NORAD 67954 · 2026-037Y

PAYLOAD ACTIVE UNKNOWN

§ Identity

Operator
Country
US
Launch date
2026-02-24
Launch site
AFETR
Launch vehicle
Mass (kg)
RCS (m²)

Purposes: comms

External: N2YO · Heavens-Above · Gunter

§ Orbital elements

Epoch: 2026-05-25T05:14:59.899776Z

Period
94.27 min
Inclination
42.9998°
Eccentricity
0.0000655
Mean motion
15.27597284 rev/d
Perigee alt
482.5 km
Apogee alt
483.4 km
Semi-major
6,861.1 km
B*
9.0104e-4
RAAN
118.6405°
Arg perigee
254.1789°
Mean anomaly
105.8990°
Rev number
1,504

§ Raw data

STARLINK-368691 67954U 26037Y   26145.21874884  .00024628  00000+0  90104-3 0  99972 67954  42.9998 118.6405 0000655 254.1789 105.8990 15.27597284 15043

JSON: /api/v1/satellites/67954 · /tle

For live sub-satellite position, see the globe view (requires WebGL).

§ Visibility from observer

Set your observer location to see the next 7 days of passes ≥ 10°. The values pass through the URL so the page stays shareable.

No JS? Fill the form by hand. The geolocation button needs JavaScript.